FW2617 Weather Reports


Display with metric or nautical units.
time (UTC)temp
F
wind
direction
speed
MPH
gust
MPH
rain 1hr
in
rain 24hr
in
rain mn
in
humidity
%
barometer
mb
20260506005404 82 251 3.0 8.0 0.00 0.00 0.00 75 1001.7
20260506004504 82 181 3.0 8.0 0.00 0.00 0.00 75 1001.6
20260506003604 82 168 6.0 12.0 0.00 0.00 0.00 74 1001.4
20260506002725 83 165 6.0 12.0 0.00 0.00 0.00 73 1001.2
20260506001804 84 170 6.0 12.0 0.00 0.00 0.00 73 1001.4
20260506000924 84 164 6.0 14.0 0.00 0.00 0.00 72 1001.3
20260506000004 84 163 6.0 12.0 0.00 0.00 0.00 71 1001.0
20260505235404 84 163 6.0 11.0 0.00 0.00 0.00 71 1001.1
20260505234504 84 165 6.0 12.0 0.00 0.00 0.00 71 1001.2
20260505233603 85 163 5.0 12.0 0.00 0.00 0.00 71 1001.3
20260505232725 85 160 6.0 12.0 0.00 0.00 0.00 70 1001.2
20260505231804 86 159 7.0 14.0 0.00 0.00 0.00 70 1001.0
20260505230904 86 166 6.0 14.0 0.00 0.00 0.00 69 1001.0
20260505230004 86 163 6.0 14.0 0.00 0.00 0.00 70 1000.9
20260505225404 86 165 6.0 14.0 0.00 0.00 0.00 69 1000.9
20260505224504 87 158 6.0 12.0 0.00 0.00 0.00 69 1001.0
20260505223604 87 156 7.0 14.0 0.00 0.00 0.00 67 1000.9
20260505222704 88 161 7.0 14.0 0.00 0.00 0.00 66 1000.7
20260505221824 90 165 5.0 11.0 0.00 0.00 0.00 62 1000.6
20260505220904 89 166 5.0 11.0 0.00 0.00 0.00 59 1000.7
20260505220004 90 172 5.0 11.0 0.00 0.00 0.00 57 1000.6
20260505215425 90 181 5.0 10.0 0.00 0.00 0.00 58 1000.8
20260505214504 90 171 4.0 11.0 0.00 0.00 0.00 59 1000.8
20260505213624 90 180 5.0 12.0 0.00 0.00 0.00 59 1000.7
20260505212703 90 181 5.0 11.0 0.00 0.00 0.00 59 1000.7
20260505211824 90 172 6.0 13.0 0.00 0.00 0.00 60 1000.9
20260505210903 91 173 5.0 13.0 0.00 0.00 0.00 60 1001.0
20260505210025 90 198 5.0 12.0 0.00 0.00 0.00 60 1001.3
20260505205404 90 184 6.0 12.0 0.00 0.00 0.00 60 1001.4
20260505204504 90 169 5.0 12.0 0.00 0.00 0.00 60 1001.3
20260505203604 90 189 6.0 12.0 0.00 0.00 0.00 60 1001.4
20260505202725 90 193 5.0 12.0 0.00 0.00 0.00 60 1001.7
20260505201803 90 173 6.0 12.0 0.00 0.00 0.00 61 1001.7
20260505200904 89 185 6.0 14.0 0.00 0.00 0.00 62 1001.7
20260505200004 88 185 6.0 11.0 0.00 0.00 0.00 63 1001.7
20260505195404 88 178 7.0 13.0 0.00 0.00 0.00 62 1001.7
20260505194504 88 184 6.0 13.0 0.00 0.00 0.00 63 1001.8
20260505193604 88 197 5.0 13.0 0.00 0.00 0.00 62 1002.0
20260505192704 88 190 5.0 10.0 0.00 0.00 0.00 66 1002.1
20260505191803 86 191 6.0 11.0 0.00 0.00 0.00 65 1002.2
20260505190904 86 190 6.0 16.0 0.00 0.00 0.00 66 1002.2
20260505190004 86 189 6.0 17.0 0.00 0.00 0.00 66 1002.2
20260505185403 85 191 7.0 17.0 0.00 0.00 0.00 67 1002.4
20260505184504 85 202 7.0 15.0 0.00 0.00 0.00 67 1002.5
20260505183604 84 193 8.0 17.0 0.00 0.00 0.00 69 1002.6
20260505182703 84 179 7.0 17.0 0.00 0.00 0.00 69 1002.6
20260505181804 84 195 8.0 14.0 0.00 0.00 0.00 70 1002.7
20260505180904 84 196 7.0 15.0 0.00 0.00 0.00 70 1002.7
20260505180004 83 192 8.0 19.0 0.00 0.00 0.00 70 1002.8
20260505175404 83 197 9.0 19.0 0.00 0.00 0.00 71 1002.9
20260505174525 82 194 7.0 13.0 0.00 0.00 0.00 73 1002.8
20260505173603 81 194 8.0 17.0 0.00 0.00 0.00 73 1002.6
20260505172704 81 196 8.0 17.0 0.00 0.00 0.00 73 1002.6
20260505171825 81 189 8.0 18.0 0.00 0.00 0.00 73 1002.6
20260505170903 81 184 7.0 15.0 0.00 0.00 0.00 74 1002.5
20260505170004 80 190 9.0 17.0 0.00 0.00 0.00 75 1002.6
20260505165403 80 191 9.0 17.0 0.00 0.00 0.00 75 1002.6
20260505164525 80 188 9.0 26.0 0.00 0.00 0.00 75 1002.5
20260505163604 80 192 7.0 19.0 0.00 0.00 0.00 75 1002.5
20260505162703 80 196 8.0 15.0 0.00 0.00 0.00 76 1002.7
20260505161804 79 188 8.0 20.0 0.00 0.00 0.00 76 1002.8
20260505160903 79 190 9.0 17.0 0.00 0.00 0.00 77 1002.8
20260505152704 76 187 10.0 20.0 0.00 0.00 0.00 82 1002.6
20260505151804 76 184 8.0 18.0 0.00 0.00 0.00 82 1002.6
20260505150904 76 195 9.0 22.0 0.00 0.00 0.00 83 1002.8
20260505124503 70 187 7.0 17.0 0.00 0.00 0.00 90 1002.2
20260505123624 70 179 6.0 16.0 0.00 0.00 0.00 90 1002.1
20260505122704 70 181 7.0 16.0 0.00 0.00 0.00 90 1002.0
20260505121825 70 179 6.0 14.0 0.00 0.00 0.00 90 1002.1
20260505120904 69 180 6.0 18.0 0.00 0.00 0.00 90 1001.9
20260505120024 69 177 6.0 12.0 0.00 0.00 0.00 90 1001.7
20260505115403 69 180 6.0 18.0 0.00 0.00 0.00 90 1001.8
20260505114503 69 185 7.0 18.0 0.00 0.00 0.00 90 1001.8
20260505113624 69 176 7.0 18.0 0.00 0.00 0.00 90 1001.8
20260505112703 69 178 7.0 15.0 0.00 0.00 0.00 90 1001.6
20260505111803 69 178 6.0 15.0 0.00 0.00 0.00 90 1001.7
20260505110903 69 180 7.0 16.0 0.00 0.00 0.00 90 1001.5
20260505101803 70 172 7.0 16.0 0.00 0.00 0.00 89 1001.7
20260505100925 70 181 7.0 14.0 0.00 0.00 0.00 89 1001.7
20260505100003 70 179 7.0 16.0 0.00 0.00 0.00 89 1001.9
20260505095404 70 180 7.0 16.0 0.00 0.00 0.00 88 1001.8
20260505094503 70 186 8.0 16.0 0.00 0.00 0.00 88 1001.8
20260505093603 70 182 8.0 16.0 0.00 0.00 0.00 88 1002.0
20260505092724 71 180 8.0 22.0 0.00 0.00 0.00 88 1001.9
20260505091803 71 183 10.0 18.0 0.00 0.00 0.00 87 1002.1
20260505090903 71 184 9.0 17.0 0.00 0.00 0.00 87 1002.1
20260505090004 71 184 8.0 17.0 0.00 0.00 0.00 88 1002.2
20260505085403 71 179 8.0 19.0 0.00 0.00 0.00 88 1002.2
20260505084504 70 185 8.0 18.0 0.00 0.00 0.00 88 1002.0
20260505083603 70 181 7.0 14.0 0.00 0.00 0.00 88 1002.0
20260505082704 70 175 9.0 23.0 0.00 0.00 0.00 88 1002.0
20260505081803 70 177 9.0 17.0 0.00 0.00 0.00 88 1002.2
20260505080903 70 177 8.0 15.0 0.00 0.00 0.00 88 1002.2
20260505080004 70 173 8.0 16.0 0.00 0.00 0.00 87 1002.2
20260505075403 70 171 8.0 17.0 0.00 0.00 0.00 87 1002.5
20260505074524 70 166 8.0 18.0 0.00 0.00 0.00 87 1002.5
20260505073603 71 174 8.0 18.0 0.00 0.00 0.00 86 1002.7
20260505072703 71 174 8.0 15.0 0.00 0.00 0.00 86 1002.8
20260505071804 71 170 7.0 16.0 0.00 0.00 0.00 86 1002.9
20260505070903 71 170 9.0 16.0 0.00 0.00 0.00 85 1003.1
20260505070004 71 173 8.0 23.0 0.00 0.00 0.00 85 1003.3
20260505065424 71 171 8.0 15.0 0.00 0.00 0.00 84 1003.2
20260505064503 72 173 8.0 19.0 0.00 0.00 0.00 84 1003.3
20260505063603 72 176 8.0 16.0 0.00 0.00 0.00 83 1003.6
20260505062704 72 171 8.0 15.0 0.00 0.00 0.00 83 1003.5
20260505061803 72 171 8.0 19.0 0.00 0.00 0.00 82 1003.6
20260505060903 72 167 8.0 16.0 0.00 0.00 0.00 82 1003.6
20260505060024 72 172 7.0 17.0 0.00 0.00 0.00 81 1003.6
20260505055424 72 169 7.0 17.0 0.00 0.00 0.00 81 1003.5
20260505054524 72 167 8.0 20.0 0.00 0.00 0.00 80 1003.6
20260505053603 73 167 7.0 17.0 0.00 0.00 0.00 79 1003.4
20260505052724 73 168 7.0 15.0 0.00 0.00 0.00 79 1003.6
20260505051803 73 169 8.0 20.0 0.00 0.00 0.00 78 1003.8
20260505050925 73 168 8.0 18.0 0.00 0.00 0.00 77 1003.8
20260505040903 74 171 8.0 16.0 0.00 0.00 0.00 75 1004.2
20260505040004 74 167 8.0 17.0 0.00 0.00 0.00 74 1004.1
20260505035403 75 171 8.0 24.0 0.00 0.00 0.00 74 1004.1
20260505034504 75 171 8.0 16.0 0.00 0.00 0.00 74 1004.3
20260505033603 75 168 7.0 20.0 0.00 0.00 0.00 74 1003.9
20260505032703 75 167 6.0 17.0 0.00 0.00 0.00 74 1003.9
20260505031803 75 170 8.0 18.0 0.00 0.00 0.00 74 1004.0
20260505030903 75 168 7.0 16.0 0.00 0.00 0.00 74 1004.1
20260505030004 75 170 6.0 15.0 0.00 0.00 0.00 74 1004.1
20260505025403 75 165 7.0 15.0 0.00 0.00 0.00 74 1004.1
20260505024503 75 167 7.0 15.0 0.00 0.00 0.00 74 1003.8
20260505023624 75 169 7.0 17.0 0.00 0.00 0.00 74 1003.7
20260505022703 75 164 6.0 14.0 0.00 0.00 0.00 73 1003.6
20260505021825 75 166 7.0 14.0 0.00 0.00 0.00 73 1003.6
20260505020903 75 165 6.0 11.0 0.00 0.00 0.00 73 1003.7
20260505020003 75 162 7.0 16.0 0.00 0.00 0.00 73 1003.5
20260505015403 75 160 7.0 16.0 0.00 0.00 0.00 73 1003.6
20260505014503 75 162 7.0 15.0 0.00 0.00 0.00 73 1003.5
20260505013625 75 160 6.0 13.0 0.00 0.00 0.00 73 1003.6
20260505012704 76 162 7.0 17.0 0.00 0.00 0.00 72 1003.6
20260505011804 76 164 6.0 12.0 0.00 0.00 0.00 72 1003.5
20260505010903 76 161 7.0 19.0 0.00 0.00 0.00 71 1003.4
20260505010004 76 163 7.0 18.0 0.00 0.00 0.00 71 1003.4